#timestamp,LO_Frequency,Hit,StdDev 
1696734015.9,286047002.6,N
1696734035.7,286047002.1,N
1696734055.5,286047000.0,N
1696734075.4,286046999.8,N
1696734095.2,286047002.4,N
1696734115.1,286047000.9,N
1696734116.0,286047000.9,N
1696734135.8,286047000.6,N
1696734155.6,286047002.3,N
1696734175.5,286047004.1,Y
1696734195.3,286047004.3,P
1696734215.1,286047003.8,N
1696734235.9,286047004.2,P
1696734255.7,286047004.4,Y
1696734275.6,286046998.7,P
1696734295.4,286046997.5,N
1696734315.2,286046997.4,N
1696734335.1,286046997.5,N
1696734336.0,286046997.5,N
1696734355.8,286046997.9,N
1696734375.7,286046997.4,N
1696734395.5,286046997.4,N
1696734415.3,286046995.5,N
1696734435.2,286046996.1,N
1696734455.0,286046993.3,Y
1696734455.9,286046993.3,P
1696734475.8,286046996.7,N
1696734495.6,286046995.0,N
1696734515.4,286046996.5,N
1696734535.3,286046998.8,N
1696734555.1,286047000.8,N
1696734575.8,286046998.9,N
1696734595.7,286047000.9,N
1696734615.5,286047000.4,N
1696734635.3,286047000.1,N
1696734655.2,286047001.6,N
1696734675.0,286047001.4,N
1696734675.9,286047001.4,N
1696734695.8,286047003.8,N
1696734715.6,286047004.2,N
1696734735.4,286047002.0,N
1696734755.3,286047003.8,N
1696734775.1,286047003.8,N
1696734795.8,286047001.9,N
1696734815.7,286047002.7,N
1696734835.5,286047000.1,N
1696734855.4,286047002.6,N
1696734875.2,286047002.8,N
1696734895.0,286047000.1,N
1696734895.9,286047000.1,N
1696734915.8,286047002.4,N
1696734935.6,286047002.8,N
1696734955.4,286047002.7,N
1696734975.3,286047002.0,N
1696734995.1,286047002.6,N
1696735015.9,286047000.2,N
1696735035.7,286047002.8,N
1696735055.5,286047000.7,N
1696735075.4,286047000.9,N
1696735095.2,286046999.7,N
1696735115.0,286047000.3,N
1696735115.9,286047000.3,N
1696735135.8,286046999.8,N
1696735155.6,286047000.2,N
1696735175.5,286046999.8,N
1696735195.3,286047002.4,N
1696735215.1,286047002.5,N
1696735235.9,286047002.6,N
1696735255.7,286047004.3,Y
1696735275.5,286047000.1,P
1696735295.4,286046998.8,N
1696735315.2,286046998.7,N
1696735335.1,286046999.0,N
1696735336.0,286046999.0,N
1696735355.8,286047000.8,N
1696735375.6,286047002.3,N
1696735395.5,286047001.5,N
1696735415.3,286047002.1,N
1696735435.1,286047001.6,N
1696735455.9,286047003.8,N
1696735475.7,286047005.0,Y
1696735495.6,286047005.5,P
1696735515.4,286047004.9,N
1696735535.2,286047005.2,N
1696735555.1,286047003.4,N
1696735556.0,286047003.4,N
1696735575.8,286047003.1,N
1696735595.7,286047005.3,Y
1696735615.5,286047002.0,P
1696735635.3,286047002.5,N
1696735655.2,286046998.7,N
1696735675.0,286046998.6,N
1696735675.9,286046998.6,N
1696735695.7,286047001.2,N
1696735715.6,286047000.6,N
1696735735.4,286046999.4,N
1696735755.3,286046997.2,N
1696735775.1,286046999.2,N
1696735776.0,286046999.2,N
1696735795.8,286046998.1,N
1696735815.7,286046999.3,N
1696735835.5,286047000.6,N
1696735855.3,286047002.5,N
1696735875.2,286047002.1,N
1696735895.0,286047003.8,N
1696735895.9,286047003.8,N
1696735915.8,286047003.9,N
1696735935.6,286046999.8,N
1696735955.4,286046999.9,N
1696735975.3,286046999.9,N
1696735995.1,286046998.2,N
1696736015.9,286046999.3,N
1696736035.7,286046998.9,N
1696736055.5,286046999.5,N
1696736075.4,286046996.5,N
1696736095.2,286046997.1,N
1696736115.1,286046997.8,N
1696736116.0,286046997.8,N
1696736135.8,286046997.0,N
1696736155.6,286046999.5,N
1696736175.5,286046999.1,N
1696736195.3,286046996.7,N
1696736215.1,286046997.8,N
1696736235.9,286046996.8,N
1696736255.7,286046997.9,N
1696736275.6,286046997.4,N
1696736295.4,286046994.9,N
1696736315.2,286046997.7,N
1696736335.1,286046997.1,N
1696736336.0,286046997.1,N
1696736355.8,286046997.2,N
1696736375.7,286046996.9,N
1696736395.5,286046997.4,N
1696736415.3,286046996.8,N
1696736435.2,286046999.5,N
1696736455.0,286046996.9,N
1696736455.9,286046996.9,N
1696736475.7,286046999.6,N
1696736495.6,286046996.7,N
1696736515.4,286046996.7,N
1696736535.3,286046997.0,N
1696736555.1,286046999.6,N
1696736575.8,286046999.6,N
1696736595.7,286046996.9,N
1696736615.5,286046999.4,N
1696736635.4,286046996.8,N
1696736655.2,286046996.7,N
1696736675.0,286046999.2,N
1696736675.9,286046999.2,N
1696736695.8,286046998.7,N
1696736715.6,286046998.4,N
1696736735.5,286047001.1,N
1696736755.3,286046998.5,N
1696736775.1,286046998.7,N
1696736795.9,286047000.7,N
1696736815.7,286047001.1,N
1696736835.5,286047001.0,N
1696736855.4,286047001.2,N
1696736875.2,286047001.2,N
1696736895.1,286046999.9,N
1696736896.0,286046999.9,N
1696736915.8,286047000.2,N
1696736935.6,286046999.9,N
1696736955.5,286047000.5,N
1696736975.3,286047002.8,N
1696736995.2,286047001.6,N
1696737015.9,286047002.5,N
1696737035.7,286047002.1,N
1696737055.6,286047001.8,N
1696737075.4,286047002.0,N
1696737095.2,286047004.1,N
1696737115.1,286047004.2,N
1696737116.0,286047004.2,N
1696737135.8,286047003.2,N
1696737155.7,286047003.0,N
1696737175.5,286047003.1,N
1696737195.3,286047003.0,N
1696737215.2,286047005.4,Y
1696737235.0,286047003.8,P
1696737235.9,286047003.8,N
1696737255.7,286047003.0,N
1696737275.6,286047002.9,N
1696737295.4,286047003.6,Y
1696737315.3,286047001.5,P
1696737335.1,286047002.5,P
1696737336.0,286047002.5,P
1696737355.8,286047001.8,Y
1696737375.7,286047001.1,P
1696737395.5,286047000.9,N
1696737415.4,286046998.3,N
1696737435.2,286047001.1,N
1696737455.0,286047000.7,N
1696737455.9,286047000.7,N
1696737475.8,286047000.2,N
1696737495.6,286046999.8,N
1696737515.4,286047002.8,N
1696737535.3,286047000.2,N
1696737555.1,286047002.0,N
1696737575.9,286047002.1,N
1696737595.7,286047001.9,N
